[Iaude] MPEC A133: 2019 AM6 [a=1.33,e=0.41,i=14.8,H=20.7]

mpec at mpcdb1.cfa.harvard.edu mpec at mpcdb1.cfa.harvard.edu
Wed Jan 9 10:21:17 EST 2019


M.P.E.C. 2019-A133                               Issued 2019 Jan.  9, 15:16 UT
 
     The Minor Planet Electronic Circulars contain information on unusual
         minor planets and routine data on comets.  They are published
    on behalf of Division F of the International Astronomical Union by the
          Minor Planet Center, Smithsonian Astrophysical Observatory,
                          Cambridge, MA 02138, U.S.A.

             Prepared using the Tamkin Foundation Computer Network

                              MPC at CFA.HARVARD.EDU
            URL https://www.minorplanetcenter.net/    ISSN 1523-6714


                                   2019 AM6
 
Observations:
     K19A06M* C2019 01 06.47087 08 02 25.884+55 15 12.88         20.5 wUEA133F51
     K19A06M  C2019 01 06.48374 08 02 23.912+55 15 53.95         20.5 wUEA133F51
     K19A06M  C2019 01 06.49661 08 02 21.928+55 16 35.21         20.4 wUEA133F51
     K19A06M  C2019 01 06.50949 08 02 19.939+55 17 16.47         20.3 wUEA133F51
     K19A06M IC2019 01 06.86377408 01 31.92 +55 36 00.1          20.3 GVEA133L01
     K19A06M IC2019 01 06.86635508 01 31.47 +55 36 08.4          20.2 GVEA133L01
     K19A06M IC2019 01 06.86894108 01 31.17 +55 36 17.7          20.3 GVEA133L01
     K19A06M  C2019 01 08.32235 07 57 48.31 +56 54 37.5          19.8 GVEA133I52
     K19A06M  C2019 01 08.32402 07 57 47.98 +56 54 42.8          20.5 GVEA133I52
     K19A06M  C2019 01 08.32568 07 57 47.75 +56 54 48.0          20.5 GVEA133I52
     K19A06M  C2019 01 08.32735 07 57 47.43 +56 54 53.7          20.8 GVEA133I52
     K19A06M  C2019 01 09.21706 07 55 19.03 +57 42 53.1          20.5 GVEA133I52
     K19A06M  C2019 01 09.22068 07 55 18.35 +57 43 05.3          20.3 GVEA133I52
     K19A06M  C2019 01 09.22144 07 55 18.17 +57 43 07.5          20.6 GVEA133I52
     K19A06M  C2019 01 09.22427 07 55 17.70 +57 43 17.3          20.5 GVEA133I52
 
Observer details:
F51 Pan-STARRS 1, Haleakala.  Observers J. Bulger, T. Lowe, A. Schultz,
    M. Willman.  Measurers K. Chambers, S. Chastel, L. Denneau, J. Fairlamb,
    H. Flewelling, M. Huber, C.-C. Lin, E. Magnier, Y. Ramanjooloo,
    R. Wainscoat, R. Weryk.  1.8-m Ritchey-Chretien + CCD.
I52 Steward Observatory, Mt. Lemmon Station.  Observer A. R. Gibbs.
    Measurers B. M. Africano, E. J. Christensen, G. A. Farneth, D. C. Fuls,
    A. R. Gibbs, A. D. Grauer, H. Groeller, R. A. Kowalski, S. M. Larson,
    G. J. Leonard, R. L. Seaman, F. C. Shelly.  1.0-m reflector + CCD.
L01 Visnjan Observatory, Tican.  Observer K. Korlevic.  1.0-m f/2.9 reflector
    + CCD.
 
Orbital elements:
2019 AM6                                                 Earth MOID = 0.1697 AU
Epoch 2019 Apr. 27.0 TT = JDT 2458600.5                 MPC
M   4.98773              (2000.0)            P               Q
n   0.64238535     Peri.  153.99246     -0.73481758     +0.63564777
a   1.3302674      Node    67.56206     -0.65836749     -0.58456127
e   0.4104399      Incl.   14.83372     -0.16308091     -0.50422221
P   1.53           H   20.7           G   0.15           U   8
Residuals in seconds of arc
190106 F51  0.0   0.1+    190106 L01  0.7-  0.9-    190108 I52  0.0   0.2+
190106 F51  0.1+  0.1-    190106 L01  0.0   0.1-    190109 I52  0.2+  0.1-
190106 F51  0.1+  0.0     190108 I52  0.1-  0.3+    190109 I52  0.1+  0.1+
190106 F51  0.0   0.2+    190108 I52  0.3-  0.1+    190109 I52  0.2-  0.3-
190106 L01  0.2-  0.7-    190108 I52  0.2+  0.1-    190109 I52  0.3+  0.2+

Ephemeris:
2019 AM6                 a,e,i = 1.33, 0.41, 15                  q = 0.7843
Date    TT    R. A. (2000) Decl.     Delta      r     Elong.  Phase     V
2018 12 10    08 18 08.6 +35 56 13   0.6037  1.4830   136.6    27.1    21.7
...
2018 12 25    08 18 43.5 +45 00 08   0.4705  1.4001   146.5    22.8    20.9
...
2019 01 02    08 10 52.9 +51 20 59   0.4165  1.3530   147.4    23.0    20.5
...
2019 01 08    07 58 39.7 +56 37 02   0.3847  1.3164   144.8    25.5    20.4
2019 01 09    07 55 55.1 +57 31 01   0.3801  1.3102   144.0    26.1    20.4
2019 01 10    07 52 56.1 +58 25 07   0.3757  1.3040   143.3    26.8    20.4
...
2019 01 16    07 29 06.2 +63 45 25   0.3536  1.2661   137.2    31.9    20.3
...
2019 01 24    06 35 41.9 +70 01 53   0.3340  1.2143   126.8    40.4    20.3
...
2019 02 08    03 39 28.6 +75 00 54   0.3168  1.1145   105.7    58.4    20.5

A. U. Tomatic                (C) Copyright 2019 MPC           M.P.E.C. 2019-A133



More information about the Iaude mailing list